EW9456 Weather Reports


Display with metric or nautical units.
time (UTC)temp
F
wind
direction
speed
MPH
gust
MPH
rain 1hr
in
rain 24hr
in
rain mn
in
humidity
%
barometer
mb
20200710140030 87 321 2.0 4.0 0.00 0.00 0.00 37 1018.0
20200710135033 86 320 0.0 2.0 0.00 0.00 0.00 40 1017.8
20200710134018 85 320 0.0 1.0 0.00 0.00 0.00 41 1017.9
20200710133017 85 320 1.0 3.0 0.00 0.00 0.00 40 1017.7
20200710132016 84 320 1.0 2.0 0.00 0.00 0.00 40 1017.5
20200710131014 84 320 1.0 3.0 0.00 0.00 0.00 39 1017.4
20200710130022 84 320 1.0 3.0 0.00 0.00 0.00 39 1017.2
20200710125007 84 320 1.0 3.0 0.00 0.00 0.00 39 1017.0
20200710124008 84 320 1.0 3.0 0.00 0.00 0.00 39 1016.9
20200710123009 84 320 1.0 2.0 0.00 0.00 0.00 39 1016.7
20200710122011 84 320 2.0 3.0 0.00 0.00 0.00 38 1016.6
20200710121007 84 320 2.0 4.0 0.00 0.00 0.00 37 1016.5
20200710120006 84 316 2.0 3.0 0.00 0.00 0.00 37 1016.4
20200710115004 84 316 2.0 3.0 0.00 0.00 0.00 37 1016.2
20200710113959 85 316 1.0 2.0 0.00 0.00 0.00 37 1016.1
20200710113015 85 316 1.0 3.0 0.00 0.00 0.00 36 1016.0
20200710112000 85 316 1.0 3.0 0.00 0.00 0.00 36 1015.9
20200710111005 86 316 2.0 4.0 0.00 0.00 0.00 36 1015.9
20200710110000 86 315 2.0 3.0 0.00 0.00 0.00 35 1015.8
20200710105002 86 315 2.0 4.0 0.00 0.00 0.00 35 1015.8
20200710103954 86 301 1.0 3.0 0.00 0.00 0.00 35 1015.8
20200710102954 87 301 2.0 4.0 0.00 0.00 0.00 35 1015.7
20200710101951 87 299 2.0 4.0 0.00 0.00 0.00 34 1015.7
20200710100950 87 296 2.0 3.0 0.00 0.00 0.00 34 1015.7
20200710095947 87 296 1.0 3.0 0.00 0.00 0.00 35 1015.7
20200710094948 87 296 0.0 2.0 0.00 0.00 0.00 34 1015.8
20200710093946 87 296 0.0 2.0 0.00 0.00 0.00 34 1015.8
20200710092948 87 296 1.0 2.0 0.00 0.00 0.00 34 1015.7
20200710091946 87 296 0.0 1.0 0.00 0.00 0.00 34 1015.7
20200710090944 87 296 0.0 2.0 0.00 0.00 0.00 34 1015.8
20200710085944 87 296 0.0 1.0 0.00 0.00 0.00 34 1015.7
20200710084944 87 296 0.0 1.0 0.00 0.00 0.00 34 1015.7
20200710083943 87 296 0.0 0.0 0.00 0.00 0.00 34 1015.6
20200710082937 86 296 0.0 1.0 0.00 0.00 0.00 34 1015.6
20200710081938 87 296 0.0 1.0 0.00 0.00 0.00 33 1015.5
20200710080938 88 296 0.0 2.0 0.00 0.00 0.00 32 1015.5
20200710075936 89 296 1.0 3.0 0.00 0.00 0.00 32 1015.3
20200710074935 89 296 1.0 3.0 0.00 0.00 0.00 32 1015.3
20200710073934 89 294 0.0 3.0 0.00 0.00 0.00 31 1015.3
20200710072932 89 292 0.0 1.0 0.00 0.00 0.00 31 1015.2
20200710071926 90 292 1.0 3.0 0.00 0.00 0.00 30 1015.2
20200710070924 91 304 0.0 2.0 0.00 0.00 0.00 28 1015.0
20200710065924 91 303 1.0 3.0 0.00 0.00 0.00 26 1014.7
20200710064924 92 355 1.0 4.0 0.00 0.00 0.00 25 1014.5
20200710063921 92 0 2.0 6.0 0.00 0.00 0.00 25 1014.6
20200710062919 93 302 1.0 3.0 0.00 0.00 0.00 25 1014.7
20200710061919 93 303 1.0 5.0 0.00 0.00 0.00 23 1014.7
20200710060917 94 290 1.0 3.0 0.00 0.00 0.00 22 1014.5
20200710055916 94 256 0.0 2.0 0.00 0.00 0.00 21 1014.4
20200710054917 94 256 1.0 5.0 0.00 0.00 0.00 20 1014.1
20200710053914 95 11 1.0 3.0 0.00 0.00 0.00 21 1013.8
20200710052911 95 11 1.0 3.0 0.00 0.00 0.00 21 1013.7
20200710051916 96 11 3.0 6.0 0.00 0.00 0.00 20 1013.6
20200710050912 96 0 2.0 5.0 0.00 0.00 0.00 21 1013.4
20200710045914 96 0 2.0 4.0 0.00 0.00 0.00 20 1013.1
20200710044908 96 355 2.0 5.0 0.00 0.00 0.00 21 1013.1
20200710043907 96 355 2.0 3.0 0.00 0.00 0.00 21 1012.9
20200710042904 97 351 2.0 5.0 0.00 0.00 0.00 21 1012.8
20200710041857 97 346 2.0 4.0 0.00 0.00 0.00 21 1012.7
20200710040857 98 346 2.0 4.0 0.00 0.00 0.00 21 1012.7
20200710035900 98 346 3.0 5.0 0.00 0.00 0.00 21 1012.5
20200710034857 98 339 2.0 5.0 0.00 0.00 0.00 22 1012.4
20200710033854 99 350 4.0 6.0 0.00 0.00 0.00 22 1012.3
20200710032849 99 17 3.0 6.0 0.00 0.00 0.00 22 1012.2
20200710031850 99 344 3.0 6.0 0.00 0.00 0.00 22 1012.0
20200710030845 100 334 3.0 7.0 0.00 0.00 0.00 22 1011.8
20200710025845 100 330 4.0 10.0 0.00 0.00 0.00 22 1011.5
20200710024844 100 355 3.0 8.0 0.00 0.00 0.00 22 1011.4
20200710023837 101 311 4.0 8.0 0.00 0.00 0.00 22 1011.2
20200710022837 101 349 3.0 10.0 0.00 0.00 0.00 22 1011.3
20200710021840 101 333 3.0 9.0 0.00 0.00 0.00 22 1011.2
20200710020834 102 350 3.0 8.0 0.00 0.00 0.00 22 1011.2
20200710015831 102 0 2.0 9.0 0.00 0.00 0.00 23 1011.1
20200710014830 103 327 3.0 9.0 0.00 0.00 0.00 23 1011.2
20200710013827 103 344 3.0 9.0 0.00 0.00 0.00 22 1011.1
20200710012827 103 355 3.0 8.0 0.00 0.00 0.00 22 1011.0
20200710011824 104 324 3.0 10.0 0.00 0.00 0.00 22 1010.9
20200710010821 104 328 2.0 5.0 0.00 0.00 0.00 22 1010.9
20200710005819 104 348 3.0 9.0 0.00 0.00 0.00 22 1010.7
20200710004822 105 350 3.0 7.0 0.00 0.00 0.00 21 1010.6
20200710003815 105 338 3.0 11.0 0.00 0.00 0.00 20 1010.7
20200710002814 105 219 2.0 8.0 0.00 0.00 0.00 21 1010.7
20200710001815 106 329 3.0 8.0 0.00 0.00 0.00 20 1010.9
20200710000813 106 344 3.0 8.0 0.00 0.00 0.00 20 1010.9
20200709235816 107 149 3.0 10.0 0.00 0.00 0.00 19 1010.9
20200709234809 107 263 2.0 8.0 0.00 0.00 0.00 19 1010.9
20200709233809 107 292 5.0 15.0 0.00 0.00 0.00 19 1011.0
20200709232809 107 323 3.0 9.0 0.00 0.00 0.00 19 1011.2
20200709231809 108 0 2.0 6.0 0.00 0.00 0.00 18 1011.2
20200709230810 107 329 2.0 5.0 0.00 0.00 0.00 19 1011.3
20200709225805 107 346 4.0 10.0 0.00 0.00 0.00 18 1011.4
20200709224807 109 325 3.0 10.0 0.00 0.00 0.00 18 1011.6
20200709223809 108 262 4.0 10.0 0.00 0.00 0.00 18 1011.6
20200709222758 108 344 3.0 12.0 0.00 0.00 0.00 18 1011.7
20200709221757 107 355 3.0 10.0 0.00 0.00 0.00 18 1011.8
20200709220757 108 5 2.0 8.0 0.00 0.00 0.00 18 1011.9
20200709215751 108 314 3.0 8.0 0.00 0.00 0.00 18 1012.0
20200709214751 108 275 3.0 9.0 0.00 0.00 0.00 18 1012.0
20200709213751 107 0 4.0 10.0 0.00 0.00 0.00 18 1012.3
20200709212745 106 287 2.0 4.0 0.00 0.00 0.00 19 1012.4
20200709211745 108 219 2.0 6.0 0.00 0.00 0.00 18 1012.6
20200709210747 106 237 3.0 9.0 0.00 0.00 0.00 19 1012.7
20200709205741 105 13 4.0 9.0 0.00 0.00 0.00 19 1012.7
20200709204740 107 298 2.0 9.0 0.00 0.00 0.00 19 1012.8
20200709203740 106 254 3.0 8.0 0.00 0.00 0.00 19 1012.9
20200709202741 108 263 2.0 6.0 0.00 0.00 0.00 18 1013.0
20200709201741 106 293 2.0 6.0 0.00 0.00 0.00 20 1013.0
20200709200741 104 178 2.0 8.0 0.00 0.00 0.00 19 1013.2
20200709195744 106 240 4.0 8.0 0.00 0.00 0.00 18 1013.3
20200709194740 107 202 3.0 8.0 0.00 0.00 0.00 18 1013.3
20200709193738 106 208 2.0 7.0 0.00 0.00 0.00 18 1013.6
20200709192739 104 326 3.0 8.0 0.00 0.00 0.00 19 1013.6
20200709191739 104 188 2.0 7.0 0.00 0.00 0.00 19 1013.7
20200709190739 104 229 2.0 8.0 0.00 0.00 0.00 19 1013.8
20200709185736 104 291 2.0 5.0 0.00 0.00 0.00 19 1013.9
20200709184736 101 228 2.0 5.0 0.00 0.00 0.00 21 1013.9
20200709183735 102 140 2.0 7.0 0.00 0.00 0.00 20 1014.0
20200709182735 102 345 2.0 8.0 0.00 0.00 0.00 19 1014.0
20200709181735 103 323 2.0 7.0 0.00 0.00 0.00 18 1014.1
20200709180734 101 351 3.0 6.0 0.00 0.00 0.00 20 1014.2
20200709175734 101 248 2.0 5.0 0.00 0.00 0.00 21 1014.2
20200709174735 100 161 2.0 6.0 0.00 0.00 0.00 21 1014.3
20200709173729 100 106 2.0 6.0 0.00 0.00 0.00 20 1014.3
20200709172729 99 208 3.0 6.0 0.00 0.00 0.00 20 1014.3
20200709171730 99 174 2.0 6.0 0.00 0.00 0.00 21 1014.3
20200709170724 98 103 3.0 7.0 0.00 0.00 0.00 21 1014.3
20200709165725 98 176 3.0 7.0 0.00 0.00 0.00 22 1014.3
20200709164728 97 329 2.0 4.0 0.00 0.00 0.00 22 1014.3
20200709163721 97 196 4.0 6.0 0.00 0.00 0.00 23 1014.4
20200709162720 97 192 3.0 6.0 0.00 0.00 0.00 23 1014.4
20200709161722 96 212 4.0 9.0 0.00 0.00 0.00 24 1014.3
20200709160716 96 180 3.0 8.0 0.00 0.00 0.00 25 1014.3
20200709155717 96 154 3.0 8.0 0.00 0.00 0.00 25 1014.3
20200709154720 95 182 3.0 10.0 0.00 0.00 0.00 26 1014.3
20200709153716 95 163 3.0 8.0 0.00 0.00 0.00 27 1014.3
20200709152714 94 162 4.0 10.0 0.00 0.00 0.00 27 1014.3
20200709151718 93 150 4.0 9.0 0.00 0.00 0.00 27 1014.3
20200709150710 92 191 4.0 8.0 0.00 0.00 0.00 28 1014.3
20200709145711 91 111 4.0 11.0 0.00 0.00 0.00 29 1014.2
20200709144709 91 114 4.0 11.0 0.00 0.00 0.00 29 1014.2
20200709143710 90 128 4.0 9.0 0.00 0.00 0.00 30 1014.2
20200709142708 89 160 4.0 13.0 0.00 0.00 0.00 30 1014.1
20200709141709 89 163 4.0 9.0 0.00 0.00 0.00 30 1014.1